This is the latest recevied weather packets stored in our database for station/object KC5DAQ-29. If no packets are shown the sender has not sent any weather packets the latest 1 day(s).
| Time | Temp. | Humidity | Pressure | Rain* | Wind** | Luminosity | Snow |
|---|---|---|---|---|---|---|---|
| 1778090944 | 26.67° C | 100% | 1007.7 hPa | 0 mm | - | 406 W/m² | - |
| 1778090582 | 26.67° C | 100% | 1007.8 hPa | 0 mm | - | 292 W/m² | - |
| 1778090162 | 26.67° C | 100% | 1007.9 hPa | 0 mm | - | 204 W/m² | - |
| 1778089982 | 26.67° C | 100% | 1007.9 hPa | 0 mm | - | 127 W/m² | - |
| 1778089923 | 26.67° C | 100% | 1008 hPa | 0 mm | - | 127 W/m² | - |
| 1778089743 | 26.67° C | 100% | 1007.9 hPa | 0 mm | - | 222 W/m² | - |
| 1778089428 | 26.67° C | 100% | 1008 hPa | 0 mm | - | 222 W/m² | - |
| 1778089187 | 26.67° C | 100% | 1008 hPa | 0 mm | - | 199 W/m² | - |
| 1778088948 | 26.67° C | 100% | 1008.2 hPa | 0 mm | - | 81 W/m² | - |
| 1778088889 | 26.67° C | 100% | 1008.1 hPa | 0 mm | - | 81 W/m² | - |
| 1778088648 | 26.67° C | 100% | 1008.2 hPa | 0 mm | - | 83 W/m² | - |
| 1778088588 | 26.67° C | 100% | 1008.2 hPa | 0 mm | - | 220 W/m² | - |
| 1778088528 | 26.67° C | 100% | 1008.2 hPa | 0 mm | - | 220 W/m² | - |
| 1778088468 | 26.67° C | 100% | 1008.2 hPa | 0 mm | - | 220 W/m² | - |
| 1778088410 | 26.67° C | 100% | 1008.2 hPa | 0 mm | - | 220 W/m² | - |
| 1778087781 | 26.67° C | 100% | 1008.3 hPa | 0 mm | - | 164 W/m² | - |
| 1778087713 | 26.67° C | 100% | 1008.3 hPa | 0 mm | - | 164 W/m² | - |
| 1778087583 | 26.67° C | 100% | 1008.3 hPa | 0 mm | - | 164 W/m² | - |
| 1778087223 | 26.67° C | 100% | 1008.3 hPa | 0 mm | - | 387 W/m² | - |
| 1778087163 | 26.67° C | 100% | 1008.4 hPa | 0 mm | - | 387 W/m² | - |
| 1778086924 | 26.11° C | 100% | 1008.3 hPa | 0 mm | - | 343 W/m² | - |
| 1778086683 | 26.11° C | 100% | 1008.2 hPa | 0 mm | - | 186 W/m² | - |
| 1778086323 | 26.11° C | 100% | 1008.2 hPa | 0 mm | - | 46 W/m² | - |
| 1778086142 | 26.67° C | 100% | 1008.3 hPa | 0 mm | - | 65 W/m² | - |
| 1778085962 | 26.67° C | 100% | 1008.3 hPa | 0 mm | - | 79 W/m² | - |
* Rain latest hour (hover to see other rain measurements)
** Current wind speed in m/s (hover to see current wind gust speed)